Regional Weather Roundup
Issued by NWS Green Bay, WI

Home | Current Version | Previous Version | Graphics & Text | Print | Product List | Glossary Off
Versions: 1 2 3 4 5 6 7 8 9 10 11 12 13 14 15 16 17 18 19 20 21 22 23 24 25 26 27 28 29 30 31 32 33 34 35 36 37 38 39 40 41 42 43 44 45 46 47 48 49 50

000
ASUS43 KGRB 170000
RWRGRB

NORTH-CENTRAL AND NORTHEAST WISCONSIN REGIONAL WEATHER ROUNDUP
NATIONAL WEATHER SERVICE GREEN BAY WI
600 PM CST SAT DEC 16 2017

WIZ005-009-010>012-018-019-170100-
NORTH CENTRAL WISCONSIN

CITY           SKY/WX    TMP DP  RH WIND       PRES   REMARKS
IRONWOOD       CLOUDY    20  13  74 SE8       30.06R
MANITOWISH WTR NOT AVBL
ARBOR VITAE    NOT AVBL
EAGLE RIVER    CLOUDY    19   9  67 SE3       30.05R
LAND O LAKES   NOT AVBL
RHINELANDER    CLOUDY    18  11  74 E7        30.05R WCI   9
PHILLIPS       CLOUDY    18  11  75 SE5       30.03S
ANTIGO         NOT AVBL
TOMAHAWK       NOT AVBL
MERRILL        CLOUDY    21  15  78 CALM      30.07R
$$

WIZ013-073-170100-
NORTHEAST WISCONSIN

CITY           SKY/WX    TMP DP  RH WIND       PRES   REMARKS
IRON MOUNTAIN  CLOUDY    19  12  74 SE6       30.11R
MARINETTE      FLURRIES  27  21  78 E13       30.14R
$$

WIZ017-030-035>037-045-170100-
CENTRAL WISCONSIN

CITY           SKY/WX    TMP DP  RH WIND       PRES   REMARKS
MEDFORD        NOT AVBL
WAUSAU         CLOUDY    21  16  81 E7        30.06R
MOSINEE        CLOUDY    21  18  86 E9        30.07R
MARSHFIELD     CLOUDY    22  17  81 E9        30.04R
WISC RAPIDS    CLOUDY    24  16  71 E9        30.07R
STEVENS POINT  NOT AVBL
WAUPACA        NOT AVBL
SHAWANO        CLOUDY    24  19  80 NE5       30.11R
CLINTONVILLE   NOT AVBL
WAUTOMA        CLOUDY    25  20  81 NE7       30.07R
$$

WIZ038-039-048-051-170100-
FOX VALLEY

CITY           SKY/WX    TMP DP  RH WIND       PRES   REMARKS
NWS GREEN BAY  CLOUDY    26  20  77 N7        30.11R
APPLETON       CLOUDY    27  18  69 NE9       30.07R
OSHKOSH        CLOUDY    28  23  81 NE8       30.08R
FOND DU LAC    CLOUDY    30  21  69 NE10      30.06R
$$

WIZ022-050-052-170100-
EAST CENTRAL WISCONSIN

CITY           SKY/WX    TMP DP  RH WIND       PRES   REMARKS
EPHRAIM        NOT AVBL
WASHINGTON ISL NOT AVBL
STURGEON BAY   CLOUDY    26  22  84 E8        30.12R
MANITOWOC      CLOUDY    28  21  75 N3        30.10R
SHEBOYGAN      CLOUDY    30  25  81 N7        30.07R
$$

LMZ563-521-522-541>543-170100-
LAKESHORE

STATION/POSITION TIME  TEMP    WIND        PRES    VSBY  WAVE
                       AIR SEA DIR/SP/G                  HT/PER
                 (UTC) (F)     (DEG/KT/KT) (MB)    (MI)  (FT/S)
SHEBOYGAN LKSHOR 2300   32      70/ 13/ 14 1017.6R
KEWAUNEE LKSHORE 2330   30      70/  7/ 13 1017.7R
NORTHPORT PIER   2340   26      70/ 14/ 17 1020.3R
MENOMINEE LKSHOR 2330   27      60/ 10/ 13 1019.4R
$$




USA.gov is the U.S. government's official web portal to all federal, state and local government web resources and services.